CW6778 Weather Reports


time (UTC)temp
C
wind
direction
speed
KPH
gust
KPH
rain 1hr
cm
rain 24hr
cm
rain mn
cm
humidity
%
barometer
mb
20260507124547 9 0 0.0 6.4 0.00 0.20 0.00 57 1013.0
20260507124029 8 0 0.0 6.4 0.00 0.20 0.00 56 1012.9
20260507123529 8 0 0.0 9.7 0.00 0.20 0.00 57 1012.9
20260507123100 8 0 1.6 9.7 0.00 0.20 0.00 59 1013.0
20260507122531 8 360 1.6 6.4 0.00 0.20 0.00 59 1013.0
20260507122031 8 0 0.0 9.7 0.00 0.20 0.00 60 1012.9
20260507121545 8 0 1.6 9.7 0.00 0.20 0.00 61 1012.8
20260507121031 7 360 4.8 9.7 0.00 0.20 0.00 61 1012.8
20260507120529 7 0 3.2 11.3 0.00 0.20 0.00 64 1012.8
20260507120050 7 360 3.2 11.3 0.00 0.20 0.00 65 1012.8
20260507115532 6 360 3.2 8.0 0.00 0.38 0.00 66 1012.7
20260507115033 6 51 3.2 8.0 0.00 0.38 0.00 68 1012.7
20260507114548 6 0 0.0 6.4 0.00 0.38 0.00 69 1012.7
20260507114034 6 0 1.6 4.8 0.00 0.38 0.00 71 1012.7
20260507113532 5 0 0.0 6.4 0.00 0.38 0.00 71 1012.5
20260507113048 5 360 3.2 6.4 0.00 0.38 0.00 72 1012.4
20260507112536 5 0 0.0 0.0 0.00 0.38 0.00 74 1012.5
20260507112036 5 0 0.0 0.0 0.00 0.38 0.00 74 1012.5
20260507111548 5 0 0.0 3.2 0.00 0.38 0.00 74 1012.5
20260507111031 5 0 0.0 3.2 0.00 0.38 0.00 74 1012.4
20260507110532 5 0 0.0 3.2 0.00 0.38 0.00 74 1012.4
20260507110051 5 0 0.0 3.2 0.00 0.38 0.00 74 1012.4
20260507105532 5 0 0.0 3.2 0.00 0.43 0.00 74 1012.3
20260507105031 5 0 0.0 0.0 0.00 0.43 0.00 73 1012.3
20260507104554 5 0 0.0 0.0 0.00 0.43 0.00 73 1012.2
20260507104029 5 0 0.0 0.0 0.00 0.43 0.00 72 1012.2
20260507103532 5 0 0.0 0.0 0.00 0.43 0.00 72 1012.1
20260507103049 5 0 0.0 1.6 0.00 0.43 0.00 72 1012.1
20260507102532 5 0 0.0 3.2 0.00 0.43 0.00 72 1012.2
20260507102032 5 0 0.0 4.8 0.00 0.43 0.00 71 1011.9
20260507101601 5 0 0.0 4.8 0.00 0.43 0.00 71 1012.0
20260507101030 5 0 1.6 4.8 0.00 0.43 0.00 71 1012.0
20260507100531 5 360 1.6 4.8 0.00 0.43 0.00 70 1012.0
20260507100053 5 360 1.6 4.8 0.00 0.43 0.00 70 1012.0
20260507095533 5 360 1.6 6.4 0.00 0.43 0.00 70 1012.0
20260507095031 5 360 1.6 6.4 0.00 0.43 0.00 69 1012.0
20260507094558 5 360 1.6 6.4 0.00 0.43 0.00 69 1011.9
20260507094031 5 0 3.2 6.4 0.00 0.43 0.00 69 1011.9
20260507093531 5 360 1.6 6.4 0.00 0.43 0.00 68 1011.9
20260507093049 5 360 3.2 6.4 0.00 0.43 0.00 68 1011.9
20260507092534 5 360 3.2 6.4 0.00 0.43 0.00 68 1011.8
20260507092029 5 360 3.2 6.4 0.00 0.43 0.00 68 1011.8
20260507091559 5 19 1.6 6.4 0.00 0.43 0.00 68 1011.9
20260507091031 5 360 1.6 6.4 0.00 0.43 0.00 68 1011.9
20260507090533 5 360 1.6 6.4 0.00 0.43 0.00 68 1011.9
20260507085529 6 360 0.0 4.8 0.00 0.43 0.00 66 1011.9
20260507085031 6 0 0.0 3.2 0.00 0.43 0.00 66 1011.8
20260507084542 6 0 0.0 0.0 0.00 0.43 0.00 65 1011.7
20260507084030 6 0 0.0 0.0 0.00 0.43 0.00 64 1011.9
20260507083529 6 0 0.0 1.6 0.00 0.43 0.00 64 1011.9
20260507083048 7 0 0.0 1.6 0.00 0.43 0.00 63 1012.0
20260507082533 7 0 0.0 3.2 0.00 0.43 0.00 62 1012.0
20260507082030 7 0 0.0 4.8 0.00 0.43 0.00 61 1012.0
20260507081555 7 0 0.0 4.8 0.00 0.43 0.00 61 1012.0
20260507081031 7 360 0.0 8.0 0.00 0.43 0.00 61 1012.0
20260507080531 7 360 1.6 8.0 0.00 0.43 0.00 60 1011.8
20260507080045 7 360 3.2 8.0 0.00 0.43 0.00 60 1012.0
20260507075531 7 360 1.6 6.4 0.00 0.43 0.00 60 1012.0
20260507075031 7 360 3.2 6.4 0.00 0.43 0.00 60 1012.0
20260507074544 7 360 3.2 6.4 0.00 0.43 0.00 59 1012.0
20260507074031 7 360 3.2 8.0 0.00 0.43 0.00 59 1012.2
20260507073531 7 17 1.6 8.0 0.00 0.43 0.00 59 1012.2
20260507073057 7 360 4.8 8.0 0.00 0.43 0.00 59 1012.2
20260507072531 7 360 1.6 9.7 0.00 0.43 0.00 59 1012.0
20260507072028 7 5 3.2 9.7 0.00 0.43 0.00 59 1012.0
20260507071545 7 52 4.8 9.7 0.00 0.43 0.00 59 1011.9
20260507071029 7 49 0.0 8.0 0.00 0.43 0.00 59 1011.8
20260507070529 7 360 3.2 9.7 0.00 0.43 0.00 58 1011.8
20260507070110 7 360 4.8 9.7 0.00 0.43 0.00 58 1011.9
20260507065528 7 360 4.8 12.9 0.00 0.43 0.00 58 1012.0
20260507065029 7 360 3.2 12.9 0.00 0.43 0.00 58 1012.0
20260507064551 7 360 4.8 12.9 0.00 0.43 0.00 58 1012.0
20260507064029 8 360 3.2 12.9 0.00 0.43 0.00 58 1012.0
20260507063532 8 58 6.4 12.9 0.00 0.43 0.00 58 1012.0
20260507063047 8 360 4.8 9.7 0.00 0.43 0.00 58 1012.0
20260507062530 8 14 3.2 8.0 0.00 0.43 0.00 58 1012.0
20260507062030 8 360 1.6 8.0 0.00 0.43 0.00 58 1012.2
20260507061547 8 360 4.8 8.0 0.00 0.43 0.00 57 1012.2
20260507061030 8 360 3.2 6.4 0.00 0.43 0.00 58 1012.3
20260507060531 8 0 3.2 8.0 0.00 0.43 0.00 57 1012.5
20260507060051 8 360 3.2 8.0 0.00 0.43 0.00 57 1012.5
20260507055530 8 360 4.8 8.0 0.00 0.43 0.00 57 1012.4
20260507055034 8 360 4.8 12.9 0.00 0.43 0.00 57 1012.4
20260507054552 8 360 4.8 12.9 0.00 0.43 0.00 56 1012.4
20260507054032 8 355 4.8 11.3 0.00 0.43 0.00 57 1012.3
20260507053530 8 0 4.8 9.7 0.00 0.43 0.00 56 1012.2
20260507053054 8 360 4.8 9.7 0.00 0.43 0.00 56 1012.2
20260507052529 8 360 3.2 9.7 0.00 0.43 0.00 57 1012.2
20260507052031 8 360 6.4 11.3 0.00 0.43 0.00 56 1012.5
20260507051549 8 360 4.8 11.3 0.00 0.43 0.00 56 1012.6
20260507051028 8 360 1.6 9.7 0.00 0.43 0.00 57 1012.5
20260507050528 8 360 3.2 9.7 0.00 0.43 0.00 56 1012.5
20260507050048 8 0 0.0 6.4 0.00 0.43 0.00 57 1012.4
20260507045533 8 360 1.6 9.7 0.00 0.43 0.00 57 1012.3
20260507045032 8 360 3.2 11.3 0.00 0.43 0.00 57 1012.2
20260507044550 8 360 6.4 11.3 0.00 0.43 0.00 56 1012.6
20260507044032 8 360 4.8 9.7 0.00 0.43 0.00 57 1012.5
20260507043531 9 360 3.2 9.7 0.00 0.43 0.00 57 1012.5
20260507043049 9 360 4.8 8.0 0.00 0.43 0.00 57 1012.3
20260507042530 9 360 1.6 8.0 0.00 0.43 0.00 60 1012.3
20260507042031 9 360 0.0 8.0 0.00 0.43 0.00 60 1012.4
20260507041549 9 360 1.6 9.7 0.00 0.43 0.00 59 1012.4
20260507041029 9 360 4.8 9.7 0.00 0.43 0.00 60 1011.9
20260507040531 9 360 0.0 8.0 0.00 0.43 0.00 62 1011.7
20260507040053 9 360 1.6 12.9 0.00 0.43 0.00 62 1011.9
20260507035529 9 360 3.2 12.9 0.00 0.43 0.43 62 1011.9
20260507035029 9 360 4.8 12.9 0.00 0.43 0.43 61 1012.1
20260507034549 9 360 3.2 8.0 0.00 0.43 0.43 61 1012.1
20260507034029 9 360 3.2 8.0 0.00 0.43 0.43 61 1012.1
20260507033528 9 360 3.2 9.7 0.00 0.43 0.43 61 1011.9
20260507033048 9 360 3.2 11.3 0.00 0.43 0.43 61 1012.0
20260507032528 9 360 3.2 11.3 0.00 0.43 0.43 60 1011.9
20260507032030 10 360 3.2 17.7 0.00 0.43 0.43 60 1011.7
20260507031546 10 360 6.4 17.7 0.00 0.43 0.43 60 1011.9
20260507031034 10 360 6.4 16.1 0.00 0.43 0.43 61 1011.7
20260507030531 10 360 4.8 17.7 0.00 0.43 0.43 62 1011.7
20260507030056 10 54 4.8 17.7 0.00 0.43 0.43 63 1011.5
20260507025528 10 360 4.8 17.7 0.00 0.43 0.43 64 1011.6
20260507025030 10 360 6.4 20.9 0.00 0.43 0.43 67 1011.6
20260507024548 10 360 8.0 20.9 0.00 0.43 0.43 67 1011.4
20260507024029 10 360 3.2 22.5 0.00 0.43 0.43 68 1011.3
20260507023531 10 360 11.3 22.5 0.00 0.43 0.43 69 1011.1
20260507023048 10 360 4.8 20.9 0.00 0.43 0.43 72 1011.2
20260507022532 10 51 12.9 20.9 0.00 0.43 0.43 71 1011.0
20260507022032 10 360 9.7 20.9 0.00 0.43 0.43 72 1011.0
20260507021607 10 360 11.3 24.1 0.00 0.43 0.43 73 1011.0
20260507021030 10 360 9.7 24.1 0.00 0.43 0.43 74 1011.1
20260507020532 10 360 3.2 9.7 0.00 0.43 0.43 75 1011.2
20260507020052 10 360 3.2 17.7 0.00 0.43 0.43 75 1011.1
20260507015531 10 360 6.4 17.7 0.00 0.43 0.43 75 1011.1
20260507015031 10 360 3.2 12.9 0.00 0.43 0.43 77 1011.2
20260507014609 11 0 1.6 8.0 0.00 0.43 0.43 77 1011.4
20260507014030 11 360 1.6 8.0 0.00 0.43 0.43 77 1011.5
20260507013530 11 0 0.0 6.4 0.00 0.43 0.43 77 1011.3
20260507013053 11 0 1.6 6.4 0.00 0.43 0.43 76 1011.4
20260507012531 11 360 0.0 6.4 0.00 0.43 0.43 76 1011.5
20260507012034 11 49 1.6 4.8 0.00 0.43 0.43 76 1011.4
20260507011548 11 360 0.0 8.0 0.00 0.43 0.43 76 1011.4
20260507011030 11 0 3.2 9.7 0.00 0.43 0.43 76 1011.4
20260507010533 11 360 3.2 12.9 0.00 0.43 0.43 76 1011.6
20260507005531 11 360 6.4 14.5 0.00 0.43 0.43 75 1011.3
20260507005030 11 360 4.8 14.5 0.00 0.43 0.43 75 1011.2
20260507004547 11 0 3.2 12.9 0.00 0.43 0.43 76 1011.4
20260507004030 11 65 4.8 16.1 0.00 0.43 0.43 75 1011.4
20260507003531 11 360 4.8 20.9 0.00 0.43 0.43 75 1011.2
20260507003044 11 360 9.7 20.9 0.00 0.43 0.43 75 1011.2
20260507002532 11 360 1.6 6.4 0.00 0.43 0.43 77 1011.1
20260507002033 11 51 1.6 9.7 0.00 0.43 0.43 77 1010.9
20260507001552 11 0 0.0 14.5 0.00 0.43 0.43 77 1010.7
20260507001030 11 360 4.8 14.5 0.00 0.43 0.43 77 1010.6
20260507000531 11 360 6.4 14.5 0.00 0.43 0.43 78 1010.7
20260507000052 11 355 6.4 14.5 0.00 0.43 0.43 78 1010.7
20260506235531 11 5 8.0 16.1 0.00 0.43 0.43 78 1010.3
20260506235030 11 360 8.0 16.1 0.00 0.43 0.43 78 1010.3
20260506234548 11 360 8.0 14.5 0.00 0.43 0.43 78 1010.3
20260506234034 11 360 6.4 14.5 0.00 0.43 0.43 78 1010.2
20260506233532 11 360 3.2 14.5 0.00 0.43 0.43 78 1010.1
20260506233049 11 360 4.8 14.5 0.00 0.43 0.43 78 1010.0
20260506232530 11 360 6.4 14.5 0.00 0.43 0.43 78 1009.9
20260506232030 11 360 6.4 14.5 0.00 0.43 0.43 78 1009.9
20260506231549 11 360 4.8 12.9 0.00 0.43 0.43 78 1009.9
20260506231030 11 360 4.8 11.3 0.00 0.43 0.43 78 1009.7
20260506230531 11 360 3.2 16.1 0.00 0.43 0.43 78 1009.8
20260506230044 11 360 4.8 22.5 0.00 0.43 0.43 78 1009.8
20260506225531 11 360 8.0 22.5 0.00 0.43 0.43 78 1009.8
20260506225029 11 360 9.7 22.5 0.00 0.43 0.43 77 1009.9
20260506224549 11 360 11.3 22.5 0.00 0.43 0.43 78 1009.9
20260506224028 12 360 9.7 22.5 0.00 0.43 0.43 78 1009.8
20260506223531 12 360 11.3 22.5 0.00 0.43 0.43 78 1009.7
20260506223047 12 360 12.9 22.5 0.00 0.43 0.43 78 1009.6
20260506222529 12 349 14.5 22.5 0.00 0.43 0.43 78 1009.3
20260506222029 12 360 11.3 27.4 0.00 0.43 0.43 77 1009.2
20260506221552 12 360 11.3 27.4 0.00 0.43 0.43 77 1009.2
20260506221028 12 360 16.1 22.5 0.00 0.43 0.43 76 1009.0
20260506220528 12 360 11.3 22.5 0.00 0.43 0.43 76 1008.9
20260506220052 12 65 6.4 19.3 0.00 0.43 0.43 77 1009.0
20260506215528 12 360 8.0 19.3 0.00 0.43 0.43 77 1009.0
20260506215028 12 360 6.4 24.1 0.00 0.43 0.43 76 1009.0
20260506214547 13 360 8.0 24.1 0.00 0.43 0.43 76 1008.7
20260506214029 13 360 6.4 22.5 0.00 0.43 0.43 77 1008.8
20260506213529 13 360 11.3 22.5 0.00 0.43 0.43 76 1008.6
20260506213043 13 348 11.3 20.9 0.00 0.43 0.43 77 1008.5
20260506212528 13 334 8.0 17.7 0.00 0.43 0.43 77 1008.4
20260506212031 13 360 8.0 19.3 0.00 0.43 0.43 76 1008.3
20260506211544 13 360 9.7 25.7 0.00 0.43 0.43 77 1008.1
20260506211031 14 360 12.9 25.7 0.00 0.43 0.43 77 1007.8
20260506210532 14 360 8.0 29.0 0.00 0.43 0.43 76 1007.8
20260506210051 14 360 11.3 27.4 0.00 0.43 0.43 76 1007.6
20260506205527 14 360 12.9 27.4 0.00 0.51 0.43 77 1007.6
20260506205030 14 360 12.9 27.4 0.00 0.51 0.43 77 1007.5
20260506204547 14 360 9.7 25.7 0.00 0.51 0.43 78 1007.6
20260506204029 14 263 12.9 25.7 0.00 0.51 0.43 78 1007.5
20260506203528 14 360 9.7 19.3 0.00 0.51 0.43 79 1007.4
20260506203051 14 279 8.0 22.5 0.00 0.51 0.43 79 1007.4
20260506202529 14 360 12.9 24.1 0.00 0.51 0.43 79 1007.4
20260506202029 14 360 11.3 24.1 0.00 0.51 0.43 80 1007.5
20260506201607 14 360 11.3 27.4 0.00 0.51 0.43 81 1007.4
20260506201028 14 360 14.5 27.4 0.00 0.51 0.43 80 1007.2
20260506200528 14 281 12.9 27.4 0.00 0.51 0.43 81 1007.2
20260506200043 14 275 16.1 27.4 0.00 0.51 0.43 81 1007.2
20260506195531 14 360 9.7 24.1 0.00 0.51 0.43 82 1007.1
20260506195031 14 360 16.1 24.1 0.00 0.51 0.43 82 1007.0
20260506194549 14 360 8.0 25.7 0.00 0.51 0.43 82 1007.0
20260506194030 15 349 12.9 25.7 0.00 0.51 0.43 82 1006.9
20260506193530 15 360 12.9 29.0 0.00 0.51 0.43 82 1006.7
20260506193051 15 360 12.9 29.0 0.00 0.51 0.43 81 1006.8
20260506192530 15 360 17.7 29.0 0.00 0.51 0.43 81 1006.8
20260506192031 16 360 12.9 24.1 0.00 0.51 0.43 81 1006.6
20260506191547 16 360 9.7 29.0 0.00 0.51 0.43 81 1006.6
20260506191031 16 284 14.5 29.0 0.00 0.51 0.43 82 1006.5
20260506190530 16 360 16.1 24.1 0.00 0.51 0.43 82 1006.5
20260506190047 16 360 12.9 24.1 0.00 0.51 0.43 84 1006.3
20260506185528 16 278 9.7 19.3 0.00 0.51 0.43 85 1006.3
20260506185031 16 360 6.4 16.1 0.00 0.51 0.43 85 1006.4
20260506184553 16 252 4.8 16.1 0.00 0.51 0.43 87 1006.2
20260506184030 15 242 4.8 16.1 0.00 0.51 0.43 87 1006.2
20260506183530 15 273 8.0 16.1 0.03 0.51 0.43 87 1006.4
20260506183044 15 277 6.4 16.1 0.03 0.51 0.43 88 1006.5
20260506182530 15 0 8.0 16.1 0.03 0.51 0.43 89 1006.4
20260506182033 14 360 6.4 16.1 0.03 0.51 0.43 88 1006.5
20260506181541 14 279 6.4 16.1 0.03 0.51 0.43 88 1006.5
20260506181032 14 360 4.8 19.3 0.03 0.51 0.43 89 1006.4
20260506180531 14 360 11.3 19.3 0.05 0.51 0.43 89 1006.5
20260506180052 14 360 6.4 20.9 0.05 0.51 0.43 89 1006.5
20260506175533 14 360 4.8 22.5 0.05 0.51 0.43 89 1006.5
20260506175033 14 360 9.7 22.5 0.05 0.51 0.43 89 1006.5
20260506174545 15 275 9.7 20.9 0.05 0.51 0.43 90 1006.4
20260506174033 15 269 4.8 11.3 0.05 0.51 0.43 90 1006.4
20260506173530 14 273 4.8 12.9 0.03 0.48 0.41 89 1006.2
20260506173112 14 360 3.2 12.9 0.03 0.48 0.41 89 1006.2
20260506172530 14 360 3.2 16.1 0.03 0.48 0.41 89 1006.2
20260506172032 14 0 4.8 17.7 0.03 0.48 0.41 89 1006.4
20260506171555 14 240 4.8 19.3 0.03 0.48 0.41 89 1006.2
20260506171030 14 248 9.7 19.3 0.03 0.48 0.41 88 1006.2
20260506170529 15 252 6.4 17.7 0.00 0.46 0.38 88 1006.1
20260506170054 15 360 6.4 17.7 0.00 0.46 0.38 88 1006.0
20260506165533 15 254 3.2 24.1 0.00 0.46 0.38 88 1006.0
20260506165030 15 233 8.0 24.1 0.00 0.46 0.38 88 1006.0
20260506164547 15 360 8.0 24.1 0.00 0.46 0.38 89 1006.0
20260506164029 15 252 6.4 22.5 0.00 0.46 0.38 89 1006.0
20260506163532 15 245 6.4 17.7 0.00 0.46 0.38 89 1006.1
20260506163101 15 239 6.4 17.7 0.00 0.46 0.38 89 1006.1
20260506162532 15 242 8.0 17.7 0.00 0.46 0.38 89 1006.2
20260506162035 15 0 4.8 14.5 0.00 0.46 0.38 89 1006.2
20260506161548 15 235 3.2 14.5 0.00 0.46 0.38 90 1006.3
20260506161036 15 244 4.8 16.1 0.00 0.46 0.38 90 1006.2
20260506160535 14 242 6.4 16.1 0.00 0.46 0.38 90 1006.2
20260506160050 14 252 6.4 12.9 0.00 0.46 0.38 90 1006.2
20260506155529 14 360 3.2 14.5 0.00 0.46 0.38 90 1006.2
20260506155029 13 239 3.2 14.5 0.00 0.46 0.38 89 1006.2
20260506154600 13 0 6.4 17.7 0.00 0.46 0.38 89 1006.2
20260506154029 13 237 4.8 17.7 0.00 0.46 0.38 89 1006.2
20260506153530 13 246 3.2 16.1 0.00 0.46 0.38 89 1006.4
20260506153042 13 0 3.2 20.9 0.00 0.46 0.38 88 1006.3
20260506152531 13 236 6.4 20.9 0.00 0.46 0.38 88 1006.3
20260506152032 13 360 6.4 16.1 0.00 0.46 0.38 88 1006.2
20260506151549 13 360 6.4 12.9 0.00 0.46 0.38 88 1006.1
20260506151030 13 0 4.8 14.5 0.00 0.46 0.38 88 1006.1
20260506150530 13 254 3.2 16.1 0.00 0.46 0.38 88 1006.1
20260506150048 13 360 4.8 17.7 0.00 0.46 0.38 88 1006.0
20260506145531 13 360 3.2 17.7 0.00 0.46 0.38 88 1006.0
20260506145034 13 360 4.8 17.7 0.00 0.46 0.38 88 1006.0
20260506144548 13 0 6.4 12.9 0.03 0.46 0.38 88 1005.8
20260506144029 13 0 1.6 12.9 0.03 0.46 0.38 88 1005.8
20260506143532 13 360 1.6 12.9 0.03 0.46 0.38 88 1005.9
20260506143045 13 253 6.4 12.9 0.03 0.46 0.38 88 1006.0
20260506142553 13 0 1.6 11.3 0.03 0.46 0.38 88 1005.9
20260506142030 13 280 4.8 12.9 0.03 0.46 0.38 88 1005.8
20260506141549 13 0 1.6 16.1 0.05 0.46 0.38 88 1005.9
20260506141032 13 238 3.2 16.1 0.05 0.46 0.38 88 1005.9
20260506140532 13 248 4.8 16.1 0.05 0.46 0.38 88 1005.8
20260506140054 13 248 4.8 14.5 0.05 0.46 0.38 88 1005.9
20260506135530 13 0 6.4 14.5 0.05 0.46 0.38 87 1005.7
20260506135032 13 0 1.6 6.4 0.03 0.43 0.36 88 1005.8
20260506134541 13 254 1.6 8.0 0.03 0.43 0.36 88 1006.0
20260506134031 13 261 1.6 8.0 0.03 0.43 0.36 87 1005.9
20260506133528 13 360 0.0 3.2 0.03 0.43 0.36 87 1006.0
20260506133050 13 0 0.0 4.8 0.03 0.43 0.36 87 1005.9
20260506132530 13 0 0.0 4.8 0.03 0.43 0.36 87 1006.1
20260506132029 13 360 1.6 12.9 0.05 0.43 0.36 87 1006.2
20260506131548 13 0 3.2 12.9 0.03 0.41 0.33 87 1006.2
20260506131030 13 0 3.2 12.9 0.05 0.41 0.33 87 1006.2
20260506130531 13 360 3.2 12.9 0.08 0.41 0.33 87 1006.1
20260506130053 13 238 3.2 14.5 0.10 0.41 0.33 87 1006.2
20260506125530 13 255 4.8 14.5 0.13 0.41 0.33 87 1006.1
20260506125030 13 252 1.6 8.0 0.13 0.41 0.33 87 1005.9